Time,TemperatureF,DewpointF,PressureIn,WindDirection,WindDirectionDegrees,WindSpeedMPH,WindSpeedGustMPH,Humidity,HourlyPrecipIn,Conditions,Clouds,dailyrainin,SoftwareType,DateUTC
2013-03-14 00:00:00,39.9,16.9,29.99,WNW,289,16.0,21.0,39,0.00,OVC,,0.21,WeatherDisplay:10.37,2013-03-14 04:00:00,
2013-03-14 00:15:00,39.0,16.1,29.99,WNW,292,18.0,24.0,39,0.00,OVC,,0.21,WeatherDisplay:10.37,2013-03-14 04:15:00,
2013-03-14 00:30:00,38.3,16.1,29.99,WNW,296,17.0,21.0,40,0.00,OVC,,0.21,WeatherDisplay:10.37,2013-03-14 04:30:00,
2013-03-14 00:45:00,37.8,16.7,29.99,WNW,297,16.0,17.0,42,0.00,OVC,,0.21,WeatherDisplay:10.37,2013-03-14 04:45:00,
2013-03-14 01:00:00,37.4,14.7,29.99,WNW,298,15.0,17.0,39,0.00,BKN,,0.21,WeatherDisplay:10.37,2013-03-14 05:00:00,
2013-03-14 01:15:00,36.9,14.2,29.99,WNW,297,15.0,20.0,39,0.00,FEW,,0.21,WeatherDisplay:10.37,2013-03-14 05:15:00,
2013-03-14 01:30:00,36.7,14.0,29.99,NW,307,17.0,24.0,39,0.00,FEW,,0.21,WeatherDisplay:10.37,2013-03-14 05:30:00,
2013-03-14 01:45:00,36.3,13.7,29.99,NW,306,20.0,22.0,39,0.00,CLR,,0.21,WeatherDisplay:10.37,2013-03-14 05:45:00,
2013-03-14 02:00:00,35.8,13.2,30.01,WNW,303,20.0,23.0,39,0.00,CLR,,0.21,WeatherDisplay:10.37,2013-03-14 06:00:00,
2013-03-14 02:15:00,35.6,13.0,30.01,WNW,300,17.0,23.0,39,0.00,CLR,,0.21,WeatherDisplay:10.37,2013-03-14 06:15:00,
2013-03-14 02:30:00,35.2,12.7,30.01,NW,307,17.0,23.0,39,0.00,CLR,,0.21,WeatherDisplay:10.37,2013-03-14 06:30:00,
2013-03-14 02:45:00,34.9,12.4,30.01,NW,308,17.0,23.0,39,0.00,CLR,,0.21,WeatherDisplay:10.37,2013-03-14 06:45:00,
2013-03-14 03:00:00,34.7,12.2,30.01,WNW,298,15.0,22.0,39,0.00,CLR,,0.21,WeatherDisplay:10.37,2013-03-14 07:00:00,
2013-03-14 03:15:00,34.3,11.9,30.01,WNW,291,17.0,20.0,39,0.00,CLR,,0.21,WeatherDisplay:10.37,2013-03-14 07:15:00,
2013-03-14 03:30:00,34.5,12.1,30.01,NW,305,18.0,28.0,39,0.00,FEW,,0.21,WeatherDisplay:10.37,2013-03-14 07:30:00,
2013-03-14 03:45:00,34.5,12.1,30.01,NW,310,15.0,17.0,39,0.00,FEW,,0.21,WeatherDisplay:10.37,2013-03-14 07:45:00,
2013-03-14 04:00:00,34.9,12.4,30.01,NW,309,16.0,21.0,39,0.00,FEW,,0.21,WeatherDisplay:10.37,2013-03-14 08:00:00,
2013-03-14 04:15:00,34.5,12.1,29.99,NW,305,16.0,22.0,39,0.00,OVC,,0.21,WeatherDisplay:10.37,2013-03-14 08:15:00,
2013-03-14 04:30:00,34.2,11.7,29.99,WNW,294,16.0,20.0,39,0.00,OVC,,0.21,WeatherDisplay:10.37,2013-03-14 08:30:00,
2013-03-14 04:45:00,34.3,11.9,29.99,WNW,300,15.0,17.0,39,0.00,BKN,,0.21,WeatherDisplay:10.37,2013-03-14 08:45:00,
2013-03-14 05:00:00,33.8,11.4,29.99,NW,307,15.0,17.0,39,0.00,BKN,,0.21,WeatherDisplay:10.37,2013-03-14 09:00:00,
2013-03-14 05:15:00,34.0,11.6,29.99,WNW,296,14.0,18.0,39,0.00,SCT,,0.21,WeatherDisplay:10.37,2013-03-14 09:15:00,
2013-03-14 05:30:00,33.6,12.9,30.01,WNW,293,13.0,15.0,42,0.00,BKN,,0.21,WeatherDisplay:10.37,2013-03-14 09:30:00,
2013-03-14 05:45:00,33.4,11.1,30.01,WNW,293,13.0,18.0,39,0.00,SCT,,0.21,WeatherDisplay:10.37,2013-03-14 09:45:00,
2013-03-14 06:00:00,33.3,14.2,30.01,WNW,288,15.0,20.0,45,0.00,SCT,,0.21,WeatherDisplay:10.37,2013-03-14 10:00:00,
2013-03-14 06:15:00,32.9,15.3,30.01,WNW,298,12.0,16.0,48,0.00,FEW,,0.21,WeatherDisplay:10.37,2013-03-14 10:15:00,
2013-03-14 06:30:00,33.1,16.0,30.01,WNW,291,12.0,17.0,49,0.00,FEW,,0.21,WeatherDisplay:10.37,2013-03-14 10:30:00,
2013-03-14 06:45:00,33.1,14.5,30.01,WNW,296,14.0,21.0,46,0.00,FEW,,0.21,WeatherDisplay:10.37,2013-03-14 10:45:00,
2013-03-14 07:00:00,32.7,13.7,30.01,WNW,282,15.0,22.0,45,0.00,CLR,,0.00,WeatherDisplay:10.37,2013-03-14 11:00:00,
2013-03-14 07:15:00,32.9,13.9,30.01,WNW,293,18.0,22.0,45,0.00,FEW,,0.00,WeatherDisplay:10.37,2013-03-14 11:15:00,
2013-03-14 07:30:00,32.7,14.2,30.01,WNW,285,16.0,16.0,46,0.00,FEW,,0.00,WeatherDisplay:10.37,2013-03-14 11:30:00,
2013-03-14 07:45:00,33.3,12.6,30.04,WNW,293,15.0,17.0,42,0.00,CLR,,0.00,WeatherDisplay:10.37,2013-03-14 11:45:00,
2013-03-14 08:00:00,34.0,14.3,30.04,WNW,289,16.0,20.0,44,0.00,CLR,,0.00,WeatherDisplay:10.37,2013-03-14 12:00:00,
2013-03-14 08:15:00,34.2,12.3,30.04,WNW,287,16.0,19.0,40,0.00,SCT,,0.00,WeatherDisplay:10.37,2013-03-14 12:15:00,
2013-03-14 08:30:00,34.0,13.3,30.04,WNW,295,16.0,20.0,42,0.00,SCT,,0.00,WeatherDisplay:10.37,2013-03-14 12:30:00,
2013-03-14 08:45:00,34.9,13.0,30.04,WNW,293,17.0,20.0,40,0.00,BKN,,0.00,WeatherDisplay:10.37,2013-03-14 12:45:00,
2013-03-14 09:00:00,35.6,13.0,30.04,NW,305,17.0,24.0,39,0.00,BKN,,0.00,WeatherDisplay:10.37,2013-03-14 13:00:00,
2013-03-14 09:15:00,35.1,12.6,30.04,WNW,290,18.0,21.0,39,0.00,BKN,,0.00,WeatherDisplay:10.37,2013-03-14 13:15:00,
2013-03-14 09:30:00,35.4,12.9,30.04,WNW,287,18.0,23.0,39,0.00,BKN,,0.00,WeatherDisplay:10.37,2013-03-14 13:30:00,
2013-03-14 09:45:00,36.9,14.2,30.04,WNW,299,21.0,24.0,39,0.00,BKN,,0.00,WeatherDisplay:10.37,2013-03-14 13:45:00,
2013-03-14 10:00:00,36.7,14.0,30.04,WNW,296,20.0,25.0,39,0.00,BKN,,0.00,WeatherDisplay:10.37,2013-03-14 14:00:00,
2013-03-14 10:15:00,37.8,15.0,30.04,NW,304,18.0,25.0,39,0.00,BKN,,0.00,WeatherDisplay:10.37,2013-03-14 14:15:00,
2013-03-14 10:30:00,38.1,15.3,30.04,WNW,293,16.0,21.0,39,0.00,BKN,,0.00,WeatherDisplay:10.37,2013-03-14 14:30:00,
2013-03-14 10:45:00,37.9,15.1,30.04,WNW,296,21.0,22.0,39,0.00,BKN,,0.00,WeatherDisplay:10.37,2013-03-14 14:45:00,
2013-03-14 11:00:00,37.8,15.0,30.04,WNW,298,20.0,24.0,39,0.00,OVC,,0.00,WeatherDisplay:10.37,2013-03-14 15:00:00,
2013-03-14 11:15:00,37.8,15.0,30.04,WNW,299,18.0,24.0,39,0.00,BKN,,0.00,WeatherDisplay:10.37,2013-03-14 15:15:00,
2013-03-14 11:30:00,38.1,15.3,30.04,WNW,290,18.0,22.0,39,0.00,BKN,,0.00,WeatherDisplay:10.37,2013-03-14 15:30:00,
2013-03-14 11:45:00,37.9,15.1,30.04,NW,315,17.0,22.0,39,0.00,BKN,,0.00,WeatherDisplay:10.37,2013-03-14 15:45:00,
2013-03-14 12:00:00,39.4,16.4,30.01,WNW,292,20.0,22.0,39,0.00,BKN,,0.00,WeatherDisplay:10.37,2013-03-14 16:00:00,
2013-03-14 12:15:00,39.0,16.1,30.01,WNW,294,18.0,24.0,39,0.00,FEW,,0.00,WeatherDisplay:10.37,2013-03-14 16:15:00,
2013-03-14 12:30:00,39.9,16.9,30.01,WNW,301,18.0,24.0,39,0.00,FEW,,0.00,WeatherDisplay:10.37,2013-03-14 16:30:00,
2013-03-14 12:45:00,40.6,17.6,30.01,WNW,289,18.0,23.0,39,0.00,SCT,,0.00,WeatherDisplay:10.37,2013-03-14 16:45:00,
2013-03-14 13:00:00,40.5,17.4,30.01,WNW,301,17.0,20.0,39,0.00,SCT,,0.00,WeatherDisplay:10.37,2013-03-14 17:00:00,
2013-03-14 13:15:00,40.6,17.6,30.01,WNW,292,16.0,18.0,39,0.00,SCT,,0.00,WeatherDisplay:10.37,2013-03-14 17:15:00,
2013-03-14 13:30:00,40.8,17.7,29.99,WNW,290,16.0,24.0,39,0.00,SCT,,0.00,WeatherDisplay:10.37,2013-03-14 17:30:00,
2013-03-14 13:45:00,41.9,18.7,29.99,WNW,296,21.0,24.0,39,0.00,SCT,,0.00,WeatherDisplay:10.37,2013-03-14 17:45:00,
2013-03-14 14:00:00,42.3,19.0,29.99,WNW,287,17.0,21.0,39,0.00,SCT,,0.00,WeatherDisplay:10.37,2013-03-14 18:00:00,
2013-03-14 14:15:00,43.3,20.0,29.99,WNW,290,16.0,23.0,39,0.00,SCT,,0.00,WeatherDisplay:10.37,2013-03-14 18:15:00,
2013-03-14 14:30:00,42.3,19.0,29.99,WNW,284,18.0,23.0,39,0.00,BKN,,0.00,WeatherDisplay:10.37,2013-03-14 18:30:00,
2013-03-14 14:45:00,42.1,18.9,29.99,WNW,298,18.0,20.0,39,0.00,BKN,,0.00,WeatherDisplay:10.37,2013-03-14 18:45:00,
2013-03-14 15:00:00,43.0,19.7,29.95,WNW,289,16.0,20.0,39,0.00,BKN,,0.00,WeatherDisplay:10.37,2013-03-14 19:00:00,
2013-03-14 15:15:00,43.5,20.2,29.95,WNW,286,16.0,21.0,39,0.00,BKN,,0.00,WeatherDisplay:10.37,2013-03-14 19:15:00,
2013-03-14 15:30:00,43.7,20.3,29.95,WNW,297,16.0,21.0,39,0.00,BKN,,0.00,WeatherDisplay:10.37,2013-03-14 19:30:00,
2013-03-14 15:45:00,43.0,19.7,29.95,WNW,299,17.0,21.0,39,0.00,BKN,,0.00,WeatherDisplay:10.37,2013-03-14 19:45:00,
2013-03-14 16:00:00,43.7,20.3,29.95,WNW,295,15.0,20.0,39,0.00,BKN,,0.00,WeatherDisplay:10.37,2013-03-14 20:00:00,
2013-03-14 16:15:00,43.9,20.5,29.95,WNW,296,16.0,20.0,39,0.00,BKN,,0.00,WeatherDisplay:10.37,2013-03-14 20:15:00,
2013-03-14 16:30:00,43.5,20.2,29.95,WNW,293,16.0,21.0,39,0.00,BKN,,0.00,WeatherDisplay:10.37,2013-03-14 20:30:00,
2013-03-14 16:45:00,43.2,19.8,29.95,WNW,287,18.0,21.0,39,0.00,SCT,,0.00,WeatherDisplay:10.37,2013-03-14 20:45:00,
2013-03-14 17:00:00,42.8,19.5,29.95,WNW,298,17.0,22.0,39,0.00,SCT,,0.00,WeatherDisplay:10.37,2013-03-14 21:00:00,
2013-03-14 17:15:00,42.4,19.2,29.95,NW,308,17.0,22.0,39,0.00,BKN,,0.00,WeatherDisplay:10.37,2013-03-14 21:15:00,
2013-03-14 17:30:00,42.4,19.2,29.95,NW,305,18.0,21.0,39,0.00,SCT,,0.00,WeatherDisplay:10.37,2013-03-14 21:30:00,
2013-03-14 17:45:00,42.3,19.0,29.95,NW,304,16.0,21.0,39,0.00,CLR,,0.00,WeatherDisplay:10.37,2013-03-14 21:45:00,
2013-03-14 18:00:00,41.7,18.5,29.95,NW,307,15.0,18.0,39,0.00,CLR,,0.00,WeatherDisplay:10.37,2013-03-14 22:00:00,
2013-03-14 18:15:00,41.4,18.2,29.95,WNW,293,17.0,19.0,39,0.00,SCT,,0.00,WeatherDisplay:10.37,2013-03-14 22:15:00,
2013-03-14 18:30:00,40.6,17.6,29.95,WNW,301,16.0,21.0,39,0.00,SCT,,0.00,WeatherDisplay:10.37,2013-03-14 22:30:00,
2013-03-14 18:45:00,40.1,17.1,29.95,WNW,292,17.0,20.0,39,0.00,FEW,,0.00,WeatherDisplay:10.37,2013-03-14 22:45:00,
2013-03-14 19:00:00,39.6,16.6,29.99,NW,304,16.0,20.0,39,0.00,FEW,,0.00,WeatherDisplay:10.37,2013-03-14 23:00:00,
2013-03-14 19:15:00,39.2,16.3,29.99,NW,305,16.0,18.0,39,0.00,CLR,,0.00,WeatherDisplay:10.37,2013-03-14 23:15:00,
2013-03-14 19:30:00,39.2,16.3,29.99,WNW,302,16.0,21.0,39,0.00,CLR,,0.00,WeatherDisplay:10.37,2013-03-14 23:30:00,
2013-03-14 19:45:00,39.0,16.1,29.99,WNW,295,17.0,20.0,39,0.00,CLR,,0.00,WeatherDisplay:10.37,2013-03-14 23:45:00,
2013-03-14 20:00:00,39.0,16.1,29.99,WNW,299,18.0,20.0,39,0.00,CLR,,0.00,WeatherDisplay:10.37,2013-03-15 00:00:00,
2013-03-14 20:15:00,38.7,15.8,30.01,NW,304,17.0,20.0,39,0.00,CLR,,0.00,WeatherDisplay:10.37,2013-03-15 00:15:00,
2013-03-14 20:30:00,38.5,15.6,30.01,WNW,300,16.0,21.0,39,0.00,CLR,,0.00,WeatherDisplay:10.37,2013-03-15 00:30:00,
2013-03-14 20:45:00,38.1,15.3,30.01,WNW,300,15.0,21.0,39,0.00,CLR,,0.00,WeatherDisplay:10.37,2013-03-15 00:45:00,
2013-03-14 21:00:00,37.8,15.0,30.01,WNW,296,14.0,16.0,39,0.00,CLR,,0.00,WeatherDisplay:10.37,2013-03-15 01:00:00,
2013-03-14 21:15:00,37.6,14.8,30.01,NW,304,14.0,15.0,39,0.00,CLR,,0.00,WeatherDisplay:10.37,2013-03-15 01:15:00,
2013-03-14 21:30:00,38.3,15.5,30.01,WNW,293,13.0,18.0,39,0.00,CLR,,0.00,WeatherDisplay:10.37,2013-03-15 01:30:00,
2013-03-14 21:45:00,37.9,15.1,30.01,WNW,292,15.0,19.0,39,0.00,CLR,,0.00,WeatherDisplay:10.37,2013-03-15 01:45:00,
2013-03-14 22:00:00,37.9,15.1,30.01,WNW,294,15.0,19.0,39,0.00,CLR,,0.00,WeatherDisplay:10.37,2013-03-15 02:00:00,
2013-03-14 22:15:00,37.9,15.1,30.01,NW,305,16.0,20.0,39,0.00,CLR,,0.00,WeatherDisplay:10.37,2013-03-15 02:15:00,
2013-03-14 22:30:00,38.1,15.3,30.01,WNW,301,16.0,21.0,39,0.00,CLR,,0.00,WeatherDisplay:10.37,2013-03-15 02:30:00,
2013-03-14 22:45:00,37.9,15.1,30.01,WNW,289,18.0,19.0,39,0.00,CLR,,0.00,WeatherDisplay:10.37,2013-03-15 02:45:00,
2013-03-14 23:00:00,37.8,15.0,30.01,WNW,295,18.0,22.0,39,0.00,CLR,,0.00,WeatherDisplay:10.37,2013-03-15 03:00:00,
2013-03-14 23:15:00,37.6,14.8,30.01,WNW,296,16.0,21.0,39,0.00,CLR,,0.00,WeatherDisplay:10.37,2013-03-15 03:15:00,
2013-03-14 23:30:00,37.4,14.7,30.01,WNW,300,15.0,18.0,39,0.00,CLR,,0.00,WeatherDisplay:10.37,2013-03-15 03:30:00,
2013-03-14 23:45:00,37.6,14.8,30.04,WNW,300,15.0,18.0,39,0.00,CLR,,0.00,WeatherDisplay:10.37,2013-03-15 03:45:00,